Showing default

COSMOS 90, 1588

Orbit data source: Space-Track

COSMOS 90, 1588 is a payload satellite owned by OKB-10 (CIS) in LEO that was launched on Sat, 18 Sep 1965 UTC via a KOSMOS 65S3 launch vehicle from the Tyuratam Missile And Space Complex (TTMTR). Payload-class satellites include a variety of spacecraft equipped with specific instruments for various scientific and technological missions. These include communications satellites like Starlink; space stations such as the ISS; scientific satellites like the Hubble; Earth observation satellites from companies like Planet Labs, Umbra, and HawkEye 360; GPS; miniature CubeSats for education and research; and military/defense satellites.

Loading next visibility...
Identifier
1588, 1965-073E
Orbit
LEO
Last TLE update
19 hours ago
Origin
Manufacturer
OKB-10
Mission
Defense Communications
Bus & Motor
STRELA-1 11F610, Unknown motor
Mass
50 kg wet, 50 kg dry
Launch date (UTC)
1965-09-18 (60 years ago)
Launch vehicle
KOSMOS 65S3
Launch site
Tyuratam Missile And Space Complex (TTMTR)
Object type
Payload
Rocket body
Debris
Shape & HBR
Poly, 0.8 m
Radar Cross Section
0.731 m², Medium (>0.1 m² and < 1m²)

Expand to show TLE details & history

TLE from 19 hours ago
0 COSMOS 90
1 01588U 65073E   25114.90817840 -.00000070  00000-0  15998-3 0  9996
2 01588  56.0571 289.1548 0154010 250.3731 261.6041 12.34587910687334
Epoch: 2025-04-24T21:47Z
Definitive object data (Epoch: 2025-04-24T21:47:46.613Z)
Latitude
24.37241°
Longitude
-88.62666°
Altitude
1,550.366 km
Speed
7.086 km/s
True Right ascension
06h 05m 57s
True Declination
24° 15' 23"
Sunlit
Object was in daylight at TLE epoch
Visualization TLE readout
Latitude
52.37685°
Longitude
167.31198°
Altitude
1,658.176 km
Speed
6.995 km/s
Apparent Right ascension
17h 39m 36s
Apparent Declination
63° 12' 52"
Sunlit
Object is in daylight
Visualization observer readout
Local Sidereal Time
00:03:23
Azimuth
327.903° NNW
Elevation
32.481°
Doppler factor
1
Orbital elements
Apogee altitude
1,651.239 km
Perigee altitude
1,407.669 km
Semi-major axis
7,907.591 km
Eccentricity
0.015401
Inclination
56.0571°
RAAN
289.1548°
Arg. of periapsis
250.3731°
True anomaly
259.86335°
Mean anomaly
261.6041°
Eccentric anomaly
260.7332°
Mean motion
3.08658 °/min
BSTAR
0.00015998
Orbital period
116.63 mins
Loading maneuver chart data...
Loading SW <> Apogee altitude chart data...
Loading historical data...
Loading historical data...
Loading historical data...
Loading historical data...
Loading historical data...
Loading historical data...
Loading historical data...

COSMOS 90 Visibility forecast

Observer location: undefined°, undefined°

Span
Click to sort rows by Start time (UTC) header in descending order
Start Az.
Max El. time (UTC)
Max El. Az.
Max El.
End time (UTC)
End Az.
10 mins2025-04-25 16:48:02.722Z327.754° NNW2025-04-25 16:50:02.722Z349.646° N29.232°2025-04-25 16:58:02.722Z46.978° ENE
16 mins2025-04-25 18:47:02.722Z315.478° NNW2025-04-25 18:55:02.722Z17.741° NNE29.058°2025-04-25 19:03:02.722Z75.731° E
17 mins2025-04-25 20:50:02.722Z317.761° NNW2025-04-25 20:59:02.722Z57.794° ENE42.812°2025-04-25 21:07:02.722Z121.712° SE
15 mins2025-04-25 22:53:02.722Z297.949° NW2025-04-25 23:00:02.722Z240.518° WSW31.513°2025-04-25 23:08:02.722Z177.506° S
14 mins2025-04-26 11:56:02.722Z164.883° S2025-04-26 12:03:02.722Z111.934° ESE24.895°2025-04-26 12:10:02.722Z64.572° ENE
18 mins2025-04-26 13:55:02.722Z225.812° WSW2025-04-26 14:04:02.722Z2.021° NNE44.827°2025-04-26 14:13:02.722Z45.149° ENE
16 mins2025-04-26 16:00:02.722Z280.243° WNW2025-04-26 16:07:02.722Z338.811° N31.684°2025-04-26 16:16:02.722Z45.286° ENE
|